ENTOENBR

Guest
Details From ENTO - TORP
To ENBR - Bergen Lufthavn Flesland
Flight Number -
Tags generated
Created
Modified
Stats Distance 166 nm / 308 km
Max Altitude 14,800 ft / 4,511 m
Waypoints 3
Social Downloads 1
Likes 0
Share VATSIM

Download

Looking for another format? Having issues loading an existing format? Contact us
Advertisement - Login to hide

Notes

Basic altitude profile: - Ascent Rate: 2500ft/min - Ascent Speed: 250kts - Cruise Altitude: 20000ft - Cruise Speed: 320kts - Descent Rate: 1500ft/min - Descent Speed: 250kts Options: - Use NATs: yes - Use PACOTS: yes - Use low airways: yes - Use high airways: yes

Route

ENTO SOROX ENBR

ID Type Via Altitude Latitude Longitude Leg Dist Tot Dist Heading (true) Name
O ENTO APT - 0 ft / 0 m 59.18666˚ 10.25860˚ - 0 nm - TORP
SOROX FIX - 14,800 ft / 4,511 m 59.82722˚ 7.50000˚ 92 nm 92 nm 296° / 293° -
O ENBR APT - 0 ft / 0 m 60.29339˚ 5.21814˚ 73 nm 166 nm 293° / 291° Bergen Lufthavn Flesland

Altitude Profile

Advertisement - Login to hide

Weather


0- 5 10 15 20 25 30 35+ Temperature / ° C

Clouds and Precipitation
Forecast for 2018-05-22 18:00 UTC. Updated an hour ago

Ground ~20,000 ft ~40,000 ft Winds

ENTO

Details ICAO ENTO (TRF)
Name TORP
Region Norway
Timezone Europe/Oslo (UTC+2.0)
Stats Elevation 286 ft / 87 m (AMSL)
Location 59.186662° 10.258596°
Runways 1
Magnetic Variation 3.069° E

METAR

ENTO 221750Z 24009KT CAVOK 20/04 Q1018

Decode

TAF

TAF ENTO 221700Z 2218/2318 23008KT CAVOK BECMG 2301/2303 01010KT BECMG 2310/2312 VRB05KT

Decode

Departure Runways

ID Width Length Bearing (true) Bearing (mag) Surface Threshold Offset Overrun Length
18 148 ft / 45 m 9,820 ft / 2,993 m 179.40° 176.33° Asphalt 1,231 ft / 375 m 0 ft / 0 m
36 148 ft / 45 m 9,820 ft / 2,993 m 359.40° 356.33° Asphalt 1,231 ft / 375 m 0 ft / 0 m

ENBR

Details ICAO ENBR (BGO)
Name Bergen Lufthavn Flesland
Region Norway
Timezone Europe/Oslo (UTC+2.0)
Stats Elevation 165 ft / 50 m (AMSL)
Location 60.293388° 5.218140°
Runways 1
Magnetic Variation 0.919° E

METAR

ENBR 221750Z 35008KT CAVOK 16/08 Q1020 NOSIG RMK WIND 1200FT 29006KT

Decode

TAF

TAF ENBR 221700Z 2218/2318 34010KT CAVOK BECMG 2219/2221 VRB05KT PROB30 2223/2304 0800 FG VV002 TEMPO 2310/2316 22010KT

Decode

Destination Runways

ID Width Length Bearing (true) Bearing (mag) Surface Threshold Offset Overrun Length
17 148 ft / 45 m 9,793 ft / 2,985 m 170.56° 169.64° Asphalt 886 ft / 270 m 0 ft / 0 m
35 148 ft / 45 m 9,793 ft / 2,985 m 350.57° 349.65° Asphalt 886 ft / 270 m 0 ft / 0 m

Approach Navaids

Runway Type Ident Frequency Range Bearing (true) Bearing (mag) Slope Elevation
17 Localiser BR 109.90 MHz 18 nm / 33 km 170.56° 169.65° - 165 ft / 50 m (AMSL)
17 Glidescope BR 109.90 MHz 10 nm / 19 km 170.56° 169.65° 3.10° 165 ft / 50 m (AMSL)
35 Localiser BG 110.50 MHz 18 nm / 33 km 350.55° 349.63° - 165 ft / 50 m (AMSL)
35 Glidescope BG 110.50 MHz 10 nm / 19 km 350.56° 349.65° 3.00° 165 ft / 50 m (AMSL)

Popular Alternatives